Weather History for LIQC - October, 2012

Change the Weather History Date:

Monday, October 22, 2012

  Actual Average Record
Temperature  
Mean Temperature 74 °F -  
Max Temperature 79 °F - - ()
Min Temperature 68 °F - - ()
Cooling Degree Days 8    
Growing Degree Days 24 (Base 50)    
Moisture  
Dew Point 69 °F    
Average Humidity 89    
Maximum Humidity 100    
Minimum Humidity 81    
Precipitation  
Precipitation 0.00 in - - ()
Sea Level Pressure  
Sea Level Pressure 30.01 in    
Wind  
Wind Speed 0 mph ()    
Max Wind Speed 0 mph    
Max Gust Speed -    
Visibility 6.0 miles    
Events      
T = Trace of Precipitation, MM = Missing Value Source: Averaged Metar Reports

Daily Weather History Graph

Daily Weather History Graph

Search for Another Location

Airport or City:

Trip Planner

Search our weather history database for the weather conditions in past years. The results will help you decide how hot, cold, wet, or windy it might be!

Date:

Astronomy

Oct. 22, 2012 Rise Set
Actual Time 7:22 AM CEST 6:12 PM CEST
Civil Twilight 6:54 AM CEST 6:40 PM CEST
Nautical Twilight 6:22 AM CEST 7:12 PM CEST
Astronomical Twilight 5:50 AM CEST 7:43 PM CEST
Moon 2:11 PM CEST (10/22) No Moon Set
Length of Visible Light 11h 46m
Length of Day
10h 50m
First Quarter, 53% of the Moon is Illuminated
Oct 22
First Quarter
Oct 29
Full
Nov 7
Last Quarter
Nov 13
New
Nov 20
First Quarter

Hourly Weather History & Observations

Time (CEST) Temp. Dew Point Humidity Pressure Visibility Wind Dir Wind Speed Gust Speed Precip Events Conditions
12:55 AM 69.8 °F 68.0 °F 94% 30.04 in - Calm Calm - N/A   Clear
1:55 AM 69.8 °F 66.2 °F 88% 30.04 in - Calm Calm - N/A   Clear
2:00 AM 70 °F 66 °F 85% 30.03 in 6 mi Calm Calm - -  
5:55 AM 68.0 °F 62.6 °F 83% 30.04 in - Calm Calm - N/A   Clear
7:55 AM 68.0 °F 66.2 °F 94% 30.04 in - Calm Calm - N/A   Clear
8:00 AM 68 °F 66 °F 90% 30.03 in 6 mi Calm Calm - -  
8:55 AM 68.0 °F 66.2 °F 94% 30.04 in - Calm Calm - N/A   Clear
9:55 AM 68.0 °F 66.2 °F 94% 30.04 in - Calm Calm - N/A   Clear
11:00 AM 71 °F 68 °F 87% 30.03 in 6 mi Calm Calm - -  
11:55 AM 71.6 °F 69.8 °F 94% 30.04 in - Calm Calm - N/A   Clear
12:55 PM 71.6 °F 68.0 °F 88% 30.04 in - Calm Calm - N/A   Clear
1:55 PM 75.2 °F 69.8 °F 83% 30.01 in - Calm Calm - N/A   Clear
2:00 PM 74 °F 70 °F 85% 30.01 in 6 mi Calm Calm - -  
2:55 PM 75.2 °F 71.6 °F 89% 30.04 in - Calm Calm - N/A   Clear
3:55 PM 77.0 °F 73.4 °F 89% 30.01 in - Calm Calm - N/A   Clear
4:55 PM 78.8 °F 73.4 °F 83% 29.98 in - Calm Calm - N/A   Clear
5:00 PM 79 °F 74 °F 81% 29.96 in 6 mi Calm Calm - -  
5:55 PM 78.8 °F 73.4 °F 83% 29.98 in - Calm Calm - N/A   Clear
7:55 PM 71.6 °F 71.6 °F 100% 29.98 in - Calm Calm - N/A   Clear
8:00 PM 72 °F 71 °F 94% 29.97 in 6 mi Calm Calm - -  
8:55 PM 71.6 °F 68.0 °F 88% 29.98 in - Calm Calm - N/A   Clear
9:55 PM 68.0 °F 66.2 °F 94% 29.98 in - Calm Calm - N/A   Clear
10:55 PM 68.0 °F 66.2 °F 94% 30.01 in - Calm Calm - N/A   Clear
11:00 PM 68 °F 65 °F 88% 30.00 in 6 mi Calm Calm - -  
11:55 PM 68.0 °F 66.2 °F 94% 30.01 in - Calm Calm - N/A   Clear